| time (UTC) | temp F | wind direction | speed MPH | gust MPH | rain 1hr in | rain 24hr in | rain mn in | humidity % | barometer mb |
| 20260504032100 | 55 | 200 | 3.0 | 5.0 | 0.00 | 0.00 | 0.00 | 63 | 1020.3 |
| 20260504031058 | 55 | 186 | 3.0 | 5.0 | 0.00 | 0.00 | 0.00 | 63 | 1020.4 |
| 20260504030100 | 55 | 185 | 3.0 | 6.0 | 0.00 | 0.00 | 0.00 | 63 | 1020.3 |
| 20260504025058 | 54 | 188 | 2.0 | 4.0 | 0.00 | 0.00 | 0.00 | 65 | 1020.5 |
| 20260504024058 | 54 | 181 | 3.0 | 6.0 | 0.00 | 0.00 | 0.00 | 64 | 1020.6 |
| 20260504023100 | 54 | 192 | 3.0 | 5.0 | 0.00 | 0.00 | 0.00 | 65 | 1020.6 |
| 20260504022059 | 54 | 192 | 3.0 | 5.0 | 0.00 | 0.00 | 0.00 | 65 | 1020.6 |
| 20260504021104 | 54 | 186 | 2.0 | 4.0 | 0.00 | 0.00 | 0.00 | 65 | 1020.6 |
| 20260504020059 | 54 | 223 | 2.0 | 4.0 | 0.00 | 0.00 | 0.00 | 65 | 1020.5 |
| 20260504015058 | 55 | 200 | 3.0 | 5.0 | 0.00 | 0.00 | 0.00 | 66 | 1020.4 |
| 20260504014058 | 55 | 213 | 3.0 | 6.0 | 0.00 | 0.00 | 0.00 | 67 | 1020.3 |
| 20260504013056 | 55 | 228 | 1.0 | 3.0 | 0.00 | 0.00 | 0.00 | 67 | 1020.2 |
| 20260504012056 | 55 | 153 | 1.0 | 2.0 | 0.00 | 0.00 | 0.00 | 66 | 1020.3 |
| 20260504011056 | 55 | 153 | 3.0 | 5.0 | 0.00 | 0.00 | 0.00 | 67 | 1020.3 |
| 20260504010053 | 55 | 182 | 2.0 | 5.0 | 0.00 | 0.00 | 0.00 | 66 | 1020.5 |
| 20260504005053 | 56 | 184 | 1.0 | 3.0 | 0.00 | 0.00 | 0.00 | 67 | 1020.6 |
| 20260504004050 | 56 | 180 | 1.0 | 5.0 | 0.00 | 0.00 | 0.00 | 66 | 1020.6 |
| 20260504003051 | 56 | 184 | 3.0 | 5.0 | 0.00 | 0.00 | 0.00 | 66 | 1020.6 |
| 20260504002049 | 56 | 193 | 4.0 | 6.0 | 0.00 | 0.00 | 0.00 | 65 | 1020.7 |
| 20260504001050 | 56 | 203 | 4.0 | 6.0 | 0.00 | 0.00 | 0.00 | 65 | 1020.7 |
| 20260504000052 | 56 | 194 | 3.0 | 4.0 | 0.00 | 0.00 | 0.00 | 66 | 1020.7 |
| 20260503235050 | 57 | 186 | 2.0 | 5.0 | 0.00 | 0.00 | 0.00 | 65 | 1020.9 |
| 20260503234050 | 57 | 218 | 2.0 | 5.0 | 0.00 | 0.00 | 0.00 | 66 | 1021.0 |
| 20260503233049 | 57 | 201 | 2.0 | 5.0 | 0.00 | 0.00 | 0.00 | 65 | 1021.0 |
| 20260503232050 | 57 | 205 | 3.0 | 6.0 | 0.00 | 0.00 | 0.00 | 66 | 1021.1 |
| 20260503231049 | 57 | 186 | 4.0 | 6.0 | 0.00 | 0.00 | 0.00 | 66 | 1021.0 |
| 20260503230052 | 57 | 197 | 3.0 | 6.0 | 0.00 | 0.00 | 0.00 | 67 | 1021.2 |
| 20260503225050 | 57 | 220 | 3.0 | 5.0 | 0.00 | 0.00 | 0.00 | 67 | 1021.3 |
| 20260503224052 | 57 | 203 | 3.0 | 7.0 | 0.00 | 0.00 | 0.00 | 69 | 1021.3 |
| 20260503223055 | 57 | 185 | 4.0 | 6.0 | 0.00 | 0.00 | 0.00 | 70 | 1021.4 |
| 20260503221050 | 57 | 182 | 3.0 | 4.0 | 0.00 | 0.00 | 0.00 | 76 | 1021.4 |
| 20260503220047 | 57 | 188 | 3.0 | 4.0 | 0.00 | 0.00 | 0.00 | 78 | 1021.4 |
| 20260503215047 | 57 | 188 | 2.0 | 4.0 | 0.00 | 0.00 | 0.00 | 76 | 1021.4 |
| 20260503214049 | 58 | 181 | 2.0 | 5.0 | 0.00 | 0.00 | 0.00 | 78 | 1021.3 |
| 20260503213047 | 58 | 186 | 3.0 | 4.0 | 0.00 | 0.00 | 0.00 | 79 | 1021.4 |
| 20260503211045 | 58 | 191 | 2.0 | 4.0 | 0.00 | 0.00 | 0.00 | 78 | 1021.4 |
| 20260503210043 | 58 | 201 | 3.0 | 4.0 | 0.00 | 0.00 | 0.00 | 78 | 1021.4 |
| 20260503205042 | 58 | 187 | 3.0 | 5.0 | 0.00 | 0.00 | 0.00 | 78 | 1021.4 |
| 20260503204040 | 58 | 219 | 3.0 | 5.0 | 0.00 | 0.00 | 0.00 | 79 | 1021.4 |
| 20260503203041 | 58 | 195 | 3.0 | 5.0 | 0.00 | 0.00 | 0.00 | 78 | 1021.4 |
| 20260503202044 | 58 | 209 | 3.0 | 6.0 | 0.00 | 0.00 | 0.00 | 79 | 1021.3 |
| 20260503201040 | 59 | 193 | 3.0 | 6.0 | 0.00 | 0.00 | 0.00 | 79 | 1021.4 |
| 20260503195041 | 59 | 196 | 4.0 | 6.0 | 0.00 | 0.00 | 0.00 | 79 | 1021.2 |
| 20260503194036 | 59 | 185 | 3.0 | 5.0 | 0.00 | 0.00 | 0.00 | 79 | 1021.3 |
| 20260503193035 | 60 | 182 | 3.0 | 5.0 | 0.00 | 0.00 | 0.00 | 80 | 1021.3 |
| 20260503192037 | 60 | 186 | 4.0 | 5.0 | 0.00 | 0.00 | 0.00 | 79 | 1021.2 |
| 20260503190041 | 61 | 215 | 3.0 | 5.0 | 0.00 | 0.00 | 0.00 | 78 | 1021.2 |
| 20260503184035 | 62 | 167 | 2.0 | 5.0 | 0.00 | 0.00 | 0.00 | 77 | 1020.8 |
| 20260503183034 | 63 | 186 | 0.0 | 2.0 | 0.00 | 0.00 | 0.00 | 75 | 1020.7 |
| 20260503182031 | 63 | 327 | 0.0 | 0.0 | 0.00 | 0.00 | 0.00 | 75 | 1020.7 |
| 20260503181031 | 63 | 327 | 0.0 | 0.0 | 0.00 | 0.00 | 0.00 | 75 | 1020.7 |
| 20260503180033 | 63 | 327 | 1.0 | 2.0 | 0.00 | 0.00 | 0.00 | 74 | 1020.5 |
| 20260503175043 | 64 | 327 | 0.0 | 2.0 | 0.00 | 0.00 | 0.00 | 74 | 1020.4 |
| 20260503174035 | 64 | 327 | 2.0 | 4.0 | 0.00 | 0.00 | 0.00 | 73 | 1020.4 |
| 20260503173038 | 64 | 333 | 3.0 | 5.0 | 0.00 | 0.00 | 0.00 | 73 | 1020.5 |
| 20260503172034 | 64 | 323 | 3.0 | 5.0 | 0.00 | 0.00 | 0.00 | 72 | 1020.5 |
| 20260503171031 | 65 | 315 | 3.0 | 7.0 | 0.00 | 0.00 | 0.00 | 72 | 1020.3 |
| 20260503131033 | 66 | 311 | 10.0 | 16.0 | 0.00 | 0.00 | 0.00 | 69 | 1021.4 |
| 20260503081023 | 65 | 299 | 7.0 | 13.0 | 0.00 | 0.00 | 0.00 | 60 | 1022.4 |
| 20260503072030 | 64 | 308 | 6.0 | 12.0 | 0.00 | 0.00 | 0.00 | 60 | 1022.4 |
| 20260503071026 | 64 | 296 | 6.0 | 11.0 | 0.00 | 0.00 | 0.00 | 59 | 1022.3 |
| 20260503055026 | 60 | 240 | 4.0 | 7.0 | 0.00 | 0.00 | 0.00 | 64 | 1022.2 |
| 20260503054031 | 59 | 240 | 3.0 | 6.0 | 0.00 | 0.00 | 0.00 | 66 | 1022.2 |
| 20260503053028 | 58 | 206 | 3.0 | 7.0 | 0.00 | 0.00 | 0.00 | 68 | 1022.1 |
| 20260503052028 | 58 | 217 | 4.0 | 6.0 | 0.00 | 0.00 | 0.00 | 69 | 1022.0 |
| 20260503051034 | 57 | 217 | 4.0 | 6.0 | 0.00 | 0.00 | 0.00 | 71 | 1021.9 |
| 20260503050041 | 56 | 171 | 3.0 | 6.0 | 0.00 | 0.00 | 0.00 | 72 | 1021.8 |
| 20260503045029 | 56 | 193 | 5.0 | 7.0 | 0.00 | 0.00 | 0.00 | 72 | 1021.8 |
| 20260503044036 | 56 | 185 | 4.0 | 8.0 | 0.00 | 0.00 | 0.00 | 72 | 1021.7 |
| 20260503043029 | 55 | 197 | 5.0 | 7.0 | 0.00 | 0.00 | 0.00 | 72 | 1021.6 |
| 20260503042024 | 55 | 215 | 4.0 | 7.0 | 0.00 | 0.00 | 0.00 | 73 | 1021.5 |
| 20260503041026 | 55 | 209 | 5.0 | 7.0 | 0.00 | 0.00 | 0.00 | 72 | 1021.5 |
| 20260503034027 | 55 | 190 | 5.0 | 8.0 | 0.00 | 0.00 | 0.00 | 72 | 1021.2 |